Location: Dal�� Lhota
(48.7500°N, 14.0167°E)
Time: 01:38:09
(UTC+00:00)

Cosmos 1300 Rocket - Pass Details

Date: 24 September 2020
Orbit: 601 x 627 km, 82.5° (Epoch: 29 October)

Event Time Altitude Azimuth Distance (km) Brightness Sun altitude
Rises 18:13:33 0° 196° (SSW) 2,887 7.0 -13.4°
Reaches altitude 10° 18:15:46 10° 199° (SSW) 1,989 6.2 -13.7°
Maximum altitude 18:20:09 65° 281° (WNW) 692 4.0 -14.4°
Drops below altitude 10° 18:24:36 10° 4° (N) 2,014 6.3 -15.1°
Sets 18:26:52 0° 8° (N) 2,927 7.1 -15.5°
